星链-5250 (STARLINK-5250 )

导读 | 豆包AI

STARLINK-5250是美国SpaceX星链星座中的一颗互联网卫星,于2022年10月28日发射入轨,属于星链快速扩张阶段组网卫星。它运行在约550公里的低地球轨道,旨在为全球提供高速低延迟宽带互联网服务,尤其弥补偏远地区基础设施不足的缺口。作为星链庞大星座的一员,该卫星助力构建全球覆盖的卫星通信网络,推动全球互联接入能力提升。

基本信息
目录编号:
54200
目录名称:
STARLINK-5250
国际标识:
2022-141AV
轨道中心:
EARTH
卫星名称:
星链-5250
卫星全名:
星链-5250 (STARLINK-5250 )
卫星状态:
在轨 (已飞行1234 天)
发射日期:
2022-10-28 UTC
国别 :
美国 (US)
星等 :
--
轨道信息
数据来源 国际轨道数据
星历时间: 2026-03-15T06:31:59+0800
14小时前
查看轨道信息
半长轴: 6917.919km
偏心率: 0.0001318
轨道倾角: 53.218°
近地点辐角 87.859°
升交点赤经 330.320°
平近点角 272.256°
近地点: 538.87km
远地点: 540.694km
周期: 95.438分钟
每日圈数: 15.088275
详细信息
固有亮度:
5
最大亮度:
2.5
卫星平台:
Starlink v1.5
覆盖范围:
全球
运营商:
太空探索技术公司
运营商所在国:
美国
制造商(研发单位):
太空探索技术公司
制造商所在国:
美国
使用方式:
暂无
卫星简介
星链(Starlink)计划是由太空探索技术公司(SpaceX)提出的一个巨型低轨卫星互联网星座项目,计划在2019年至2024年间在太空搭建由约1.2万颗卫星组成的“星链”网络,其中1584颗将部署在地球上空550千米处的近地轨道,并从2020年开始工作。该卫星仍在工作。
2D轨道图
3D轨道图
轨道高度分析图
轨道倾角分析图
轨道综合分析图
查看轨道综合分析图